This demonstration page uses our WeatherBlox Daily Observations layout. Learn more.

Left ArrowRight Arrow

Hourly Observations for June 1, 2019

Temp ( °F °C ) Dew Point ( °F °C ) Humidity (%) Winds ( mph kmh ) Pressure ( in mb ) Visibility ( mi km ) Precip ( " mm )
12:03 am 00:03 Mostly Cloudy with Mist and Fog 60 15.6 59 15 96 96 N N/A 29.91 1013 1 1 N/A
12:53 am 00:53 Mostly Cloudy with Fog 60 15.6 58 14.4 93 93 N N/A 29.89 1012 0 0 N/A
1:53 am 01:53 Mostly Cloudy with Fog 60 15.6 59 15 96 96 N N/A 29.89 1012 0 0 N/A
2:53 am 02:53 Mostly Cloudy with Fog 59 15 58 14.4 96 96 N N/A 29.90 1012 0 0 N/A
3:53 am 03:53 Mostly Cloudy with Fog 59 15 57 13.9 93 93 N N/A 29.90 1013 0 0 N/A
4:53 am 04:53 Mostly Cloudy with Fog 57 13.9 56 13.3 96 96 N N/A 29.90 1013 1 1 N/A
5:49 am 05:49 Partly Cloudy with Mist and Fog 57 14 55 13 94 94 W 3 6 29.91 1013 1 2 N/A
5:53 am 05:53 Partly Cloudy with Mist and Fog 58 14.4 56 13.3 93 93 W 3 6 29.91 1013 2 2 N/A
6:18 am 06:18 Mostly Cloudy with Mist and Fog 58 14.4 56 13.3 93 93 N N/A 29.92 1013 1 1 N/A
6:53 am 06:53 Mostly Cloudy with Fog 58 14.4 57 13.9 97 97 N N/A 29.91 1013 5 8 N/A
7:53 am 07:53 Mostly Cloudy with Fog 60 15.6 60 15.6 100 100 N N/A 29.93 1013 0 0 N/A
8:50 am 08:50 Cloudy with Mist and Fog 63 17 63 17 100 100 VRB 3 6 29.93 1014 2 3 N/A
8:53 am 08:53 Cloudy with Mist and Fog 64 17.8 63 17.2 96 96 WSW 3 6 29.93 1014 3 4 N/A
9:01 am 09:01 Mostly Cloudy with Mist and Fog 65 18.3 63 17.2 93 93 VRB 5 7 29.93 1014 4 6 N/A
9:20 am 09:20 Mostly Sunny 66 18.9 64 17.8 93 93 VRB 3 6 29.93 1013 8 13 N/A
9:53 am 09:53 Sunny 69 20.6 65 18.3 87 87 N N/A 29.93 1014 10 16 N/A
10:53 am 10:53 Sunny 75 23.9 67 19.4 76 76 SSW 3 6 29.91 1013 10 16 N/A
11:53 am 11:53 Sunny 77 25 64 17.8 64 64 WSW 6 9 29.91 1013 10 16 N/A
12:53 pm 12:53 Sunny 79 26.1 64 17.8 60 60 VRB 5 7 29.89 1012 10 16 N/A
1:53 pm 13:53 Sunny 78 25.6 64 17.8 62 62 VRB 7 11 29.87 1012 10 16 N/A
2:53 pm 14:53 Sunny 81 27.2 63 17.2 54 54 WSW 7 11 29.85 1011 10 16 N/A
3:53 pm 15:53 Mostly Sunny 81 27.2 62 16.7 53 53 WSW 8 13 29.84 1011 10 16 N/A
4:53 pm 16:53 Mostly Sunny 82 27.8 63 17.2 53 53 WSW 8 13 29.83 1010 10 16 N/A
5:53 pm 17:53 Mostly Sunny 81 27.2 62 16.7 53 53 SW 8 13 29.82 1010 10 16 N/A
6:53 pm 18:53 Sunny 80 26.7 61 16.1 52 52 SW 7 11 29.80 1009 10 16 N/A
7:53 pm 19:53 Sunny 78 25.6 61 16.1 56 56 SW 5 7 29.80 1009 10 16 N/A
8:53 pm 20:53 Sunny 71 21.7 64 17.8 79 79 N N/A 29.79 1009 10 16 N/A
9:53 pm 21:53 Clear 71 21.7 63 17.2 76 76 SW 5 7 29.80 1009 10 16 N/A
10:53 pm 22:53 Clear 69 20.6 64 17.8 84 84 N N/A 29.80 1009 10 16 N/A
11:53 pm 23:53 Clear 68 20 63 17.2 84 84 N N/A 29.78 1008 10 16 N/A

Powered by AerisWeather